| time (UTC) | temp C | wind direction | speed KPH | gust KPH | rain 1hr cm | rain 24hr cm | rain mn cm | humidity % | barometer mb |
| 20260504044536 | 4 | 181 | 14.5 | 33.8 | 0.08 | 1.42 | 0.10 | 96 | 974.2 |
| 20260504043045 | 4 | 74 | 4.8 | 19.3 | 0.05 | 1.42 | 0.08 | 96 | 975.0 |
| 20260504041534 | 4 | 95 | 8.0 | 22.5 | 0.05 | 1.42 | 0.05 | 96 | 975.7 |
| 20260504040028 | 4 | 348 | 4.8 | 17.7 | 0.05 | 1.40 | 0.05 | 95 | 976.5 |
| 20260504034526 | 4 | 62 | 8.0 | 30.6 | 0.03 | 1.37 | 0.03 | 95 | 976.6 |
| 20260504033023 | 4 | 108 | 14.5 | 38.6 | 0.03 | 1.37 | 0.03 | 95 | 977.1 |
| 20260504031519 | 4 | 101 | 17.7 | 40.2 | 0.00 | 1.37 | 0.00 | 95 | 978.9 |
| 20260504030017 | 5 | 170 | 14.5 | 43.5 | 0.03 | 1.37 | 0.00 | 94 | 979.3 |
| 20260504024514 | 5 | 137 | 16.1 | 41.8 | 0.03 | 1.37 | 1.37 | 94 | 980.0 |
| 20260504023011 | 5 | 111 | 17.7 | 40.2 | 0.03 | 1.37 | 1.37 | 94 | 980.6 |
| 20260504021511 | 5 | 53 | 6.4 | 24.1 | 0.03 | 1.37 | 1.37 | 95 | 981.8 |
| 20260504020006 | 6 | 167 | 4.8 | 20.9 | 0.03 | 1.35 | 1.35 | 96 | 982.6 |
| 20260504014502 | 6 | 163 | 8.0 | 19.3 | 0.05 | 1.35 | 1.35 | 97 | 983.0 |
| 20260504013002 | 6 | 61 | 9.7 | 20.9 | 0.05 | 1.35 | 1.35 | 98 | 983.2 |
| 20260504011559 | 6 | 69 | 12.9 | 25.7 | 0.08 | 1.35 | 1.35 | 98 | 984.0 |
| 20260504010101 | 5 | 136 | 4.8 | 32.2 | 0.08 | 1.32 | 1.32 | 98 | 985.0 |
| 20260504004552 | 5 | 67 | 12.9 | 22.5 | 0.10 | 1.30 | 1.30 | 98 | 985.7 |
| 20260504003050 | 5 | 44 | 14.5 | 30.6 | 0.10 | 1.27 | 1.27 | 98 | 986.3 |
| 20260504001556 | 5 | 16 | 11.3 | 38.6 | 0.20 | 1.27 | 1.27 | 98 | 987.0 |
| 20260504000046 | 4 | 78 | 16.1 | 24.1 | 0.28 | 1.24 | 1.24 | 98 | 988.1 |
| 20260503234543 | 3 | 63 | 14.5 | 33.8 | 0.33 | 1.19 | 1.19 | 98 | 988.3 |
| 20260503233040 | 3 | 54 | 12.9 | 29.0 | 0.43 | 1.17 | 1.17 | 98 | 989.6 |
| 20260503231539 | 3 | 67 | 9.7 | 30.6 | 0.33 | 1.04 | 1.04 | 98 | 990.1 |
| 20260503230057 | 3 | 63 | 16.1 | 29.0 | 0.33 | 0.97 | 0.97 | 98 | 991.2 |
| 20260503224533 | 3 | 52 | 12.9 | 22.5 | 0.30 | 0.89 | 0.89 | 98 | 992.1 |
| 20260503223031 | 3 | 86 | 16.1 | 25.7 | 0.25 | 0.76 | 0.76 | 98 | 993.3 |
| 20260503221532 | 3 | 78 | 9.7 | 20.9 | 0.25 | 0.69 | 0.69 | 98 | 994.3 |
| 20260503220032 | 3 | 50 | 12.9 | 27.4 | 0.28 | 0.61 | 0.61 | 98 | 995.0 |
| 20260503214533 | 3 | 83 | 11.3 | 22.5 | 0.38 | 0.58 | 0.58 | 98 | 995.1 |
| 20260503213031 | 3 | 46 | 6.4 | 25.7 | 0.33 | 0.51 | 0.51 | 98 | 995.8 |
| 20260503211521 | 2 | 86 | 9.7 | 27.4 | 0.28 | 0.43 | 0.43 | 97 | 996.7 |
| 20260503210020 | 2 | 59 | 12.9 | 25.7 | 0.20 | 0.33 | 0.33 | 97 | 996.2 |
| 20260503204524 | 2 | 69 | 9.7 | 29.0 | 0.08 | 0.20 | 0.20 | 97 | 997.5 |
| 20260503203015 | 2 | 42 | 12.9 | 29.0 | 0.05 | 0.15 | 0.15 | 97 | 997.6 |
| 20260503201513 | 3 | 55 | 12.9 | 37.0 | 0.05 | 0.15 | 0.15 | 97 | 998.9 |
| 20260503200010 | 3 | 79 | 11.3 | 27.4 | 0.05 | 0.15 | 0.15 | 97 | 999.5 |
| 20260503194507 | 3 | 55 | 17.7 | 37.0 | 0.05 | 0.13 | 0.13 | 96 | 1000.1 |
| 20260503193007 | 3 | 57 | 14.5 | 32.2 | 0.05 | 0.10 | 0.10 | 96 | 1001.1 |
| 20260503191502 | 3 | 59 | 14.5 | 29.0 | 0.08 | 0.08 | 0.08 | 95 | 1001.7 |
| 20260503190100 | 4 | 39 | 12.9 | 32.2 | 0.08 | 0.08 | 0.08 | 95 | 1002.9 |
| 20260503184555 | 4 | 24 | 11.3 | 22.5 | 0.08 | 0.08 | 0.08 | 94 | 1003.8 |
| 20260503183057 | 5 | 73 | 11.3 | 20.9 | 0.05 | 0.05 | 0.05 | 92 | 1005.2 |
| 20260503181559 | 5 | 30 | 12.9 | 24.1 | 0.00 | 0.00 | 0.00 | 90 | 1006.0 |
| 20260503180051 | 6 | 20 | 9.7 | 22.5 | 0.00 | 0.00 | 0.00 | 87 | 1006.4 |
| 20260503174548 | 6 | 26 | 9.7 | 24.1 | 0.00 | 0.00 | 0.00 | 84 | 1006.9 |
| 20260503173042 | 7 | 34 | 4.8 | 16.1 | 0.00 | 0.00 | 0.00 | 83 | 1007.8 |
| 20260503171539 | 7 | 71 | 8.0 | 19.3 | 0.00 | 0.00 | 0.00 | 83 | 1008.5 |
| 20260503120107 | 5 | 344 | 3.2 | 12.9 | 0.00 | 0.00 | 0.00 | 97 | 1013.9 |
| 20260503081527 | 0 | 157 | 0.0 | 3.2 | 0.00 | 0.03 | 0.00 | 97 | 1015.9 |
| 20260503071520 | 1 | 157 | 1.6 | 3.2 | 0.00 | 0.03 | 0.00 | 98 | 1016.3 |